Location: Ottawa
(45.4167°N, 75.7000°W)
Time: 22:47:11
(UTC-04:00)

Envisat - Pass Details

Date: 10 October 2017
Orbit: 764 x 766 km, 98.2° (Epoch: 21 October)

Event Time Altitude Azimuth Distance (km) Brightness Sun altitude
Exits shadow 21:07:41 57° 233° (SW) 901 3.4 -28.8°
Maximum altitude 21:08:10 60° 259° (W) 878 3.4 -28.9°
Drops below altitude 10° 21:13:12 10° 339° (NNW) 2,312 6.0 -29.7°
Sets 21:15:33 0° 344° (NNW) 3,243 6.8 -30.1°
